| time (UTC) | temp C | wind direction | speed KPH | gust KPH | rain 1hr cm | rain 24hr cm | rain mn cm | humidity % | barometer mb |
| 20260505140440 | 24 | 88 | 3.2 | 6.4 | 0.00 | 0.00 | 0.00 | 40 | 1006.6 |
| 20260505123524 | 23 | 329 | 3.2 | 4.8 | 0.00 | 0.00 | 0.00 | 43 | 1007.8 |
| 20260505122500 | 24 | 109 | 12.9 | 22.5 | 0.00 | 0.00 | 0.00 | 39 | 1007.8 |
| 20260505121437 | 24 | 343 | 19.3 | 27.4 | 0.00 | 0.00 | 0.00 | 40 | 1007.7 |
| 20260505120436 | 24 | 89 | 8.0 | 12.9 | 0.00 | 0.00 | 0.00 | 40 | 1008.0 |
| 20260505115452 | 23 | 296 | 9.7 | 14.5 | 0.00 | 0.00 | 0.00 | 42 | 1008.0 |
| 20260505114430 | 23 | 322 | 12.9 | 22.5 | 0.00 | 0.00 | 0.00 | 41 | 1008.2 |
| 20260505113428 | 22 | 106 | 1.6 | 4.8 | 0.00 | 0.00 | 0.00 | 46 | 1008.2 |
| 20260505112427 | 23 | 48 | 8.0 | 14.5 | 0.00 | 0.00 | 0.00 | 46 | 1008.3 |
| 20260505111447 | 23 | 96 | 16.1 | 25.7 | 0.00 | 0.00 | 0.00 | 44 | 1008.2 |
| 20260505110427 | 22 | 6 | 6.4 | 11.3 | 0.00 | 0.00 | 0.00 | 43 | 1008.6 |
| 20260505101433 | 21 | 337 | 4.8 | 6.4 | 0.00 | 0.00 | 0.00 | 51 | 1009.2 |
| 20260505100452 | 21 | 13 | 4.8 | 6.4 | 0.00 | 0.00 | 0.00 | 48 | 1009.1 |
| 20260505095427 | 21 | 41 | 11.3 | 22.5 | 0.00 | 0.00 | 0.00 | 49 | 1009.4 |
| 20260505094428 | 21 | 321 | 9.7 | 22.5 | 0.00 | 0.00 | 0.00 | 55 | 1009.3 |
| 20260505093428 | 20 | 341 | 4.8 | 9.7 | 0.00 | 0.00 | 0.00 | 53 | 1009.5 |
| 20260505092427 | 20 | 329 | 1.6 | 3.2 | 0.00 | 0.00 | 0.00 | 54 | 1009.5 |
| 20260505091428 | 20 | 51 | 6.4 | 11.3 | 0.00 | 0.00 | 0.00 | 56 | 1009.6 |
| 20260505090443 | 20 | 330 | 4.8 | 6.4 | 0.00 | 0.00 | 0.00 | 55 | 1009.8 |
| 20260505085440 | 19 | 107 | 3.2 | 6.4 | 0.00 | 0.00 | 0.00 | 57 | 1009.8 |
| 20260505084437 | 19 | 96 | 4.8 | 6.4 | 0.00 | 0.00 | 0.00 | 57 | 1009.9 |
| 20260505083455 | 19 | 285 | 3.2 | 9.7 | 0.00 | 0.00 | 0.00 | 62 | 1010.0 |
| 20260505082432 | 18 | 45 | 6.4 | 6.4 | 0.00 | 0.00 | 0.00 | 62 | 1009.9 |
| 20260505081431 | 18 | 29 | 4.8 | 6.4 | 0.00 | 0.00 | 0.00 | 63 | 1009.9 |
| 20260505080426 | 18 | 340 | 6.4 | 9.7 | 0.00 | 0.00 | 0.00 | 63 | 1010.1 |
| 20260505075508 | 18 | 319 | 3.2 | 4.8 | 0.00 | 0.00 | 0.00 | 63 | 1010.2 |
| 20260505074426 | 18 | 105 | 3.2 | 4.8 | 0.00 | 0.00 | 0.00 | 64 | 1010.2 |
| 20260505073426 | 18 | 211 | 3.2 | 4.8 | 0.00 | 0.00 | 0.00 | 63 | 1010.3 |
| 20260505072445 | 18 | 0.0 | 0.0 | 0.00 | 0.00 | 0.00 | 63 | 1010.2 | |
| 20260505071444 | 18 | 42 | 3.2 | 4.8 | 0.00 | 0.00 | 0.00 | 63 | 1010.2 |
| 20260505070441 | 17 | 184 | 0.0 | 1.6 | 0.00 | 0.00 | 0.00 | 63 | 1010.1 |
| 20260505065436 | 17 | 338 | 4.8 | 6.4 | 0.00 | 0.00 | 0.00 | 63 | 1010.5 |
| 20260505064433 | 17 | 330 | 1.6 | 3.2 | 0.00 | 0.00 | 0.00 | 64 | 1010.3 |
| 20260505063452 | 18 | 0.0 | 0.0 | 0.00 | 0.00 | 0.00 | 60 | 1010.6 | |
| 20260505062427 | 18 | 342 | 1.6 | 4.8 | 0.00 | 0.00 | 0.00 | 59 | 1010.5 |
| 20260505061427 | 19 | 0.0 | 0.0 | 0.00 | 0.00 | 0.00 | 58 | 1010.5 | |
| 20260505060427 | 20 | 116 | 3.2 | 3.2 | 0.00 | 0.00 | 0.00 | 57 | 1010.7 |
| 20260505055427 | 19 | 127 | 1.6 | 3.2 | 0.00 | 0.00 | 0.00 | 57 | 1010.7 |
| 20260505054426 | 19 | 124 | 1.6 | 3.2 | 0.00 | 0.00 | 0.00 | 59 | 1010.6 |
| 20260505053443 | 18 | 128 | 1.6 | 1.6 | 0.00 | 0.00 | 0.00 | 59 | 1010.8 |
| 20260505052441 | 18 | 133 | 1.6 | 3.2 | 0.00 | 0.00 | 0.00 | 62 | 1010.6 |
| 20260505051439 | 17 | 139 | 3.2 | 4.8 | 0.00 | 0.00 | 0.00 | 64 | 1010.8 |
| 20260505050455 | 16 | 137 | 3.2 | 4.8 | 0.00 | 0.00 | 0.00 | 68 | 1010.8 |
| 20260505041426 | 14 | 192 | 1.6 | 4.8 | 0.00 | 0.00 | 0.00 | 68 | 1010.8 |
| 20260505040427 | 15 | 287 | 3.2 | 3.2 | 0.00 | 0.00 | 0.00 | 66 | 1010.9 |
| 20260505035445 | 13 | 284 | 3.2 | 3.2 | 0.00 | 0.00 | 0.00 | 70 | 1010.8 |
| 20260505034443 | 12 | 296 | 4.8 | 4.8 | 0.00 | 0.00 | 0.00 | 73 | 1010.9 |
| 20260505033440 | 12 | 297 | 4.8 | 6.4 | 0.00 | 0.00 | 0.00 | 76 | 1010.9 |
| 20260505032437 | 11 | 259 | 3.2 | 3.2 | 0.00 | 0.00 | 0.00 | 77 | 1010.9 |
| 20260505031434 | 12 | 147 | 4.8 | 4.8 | 0.00 | 0.00 | 0.00 | 75 | 1010.9 |
| 20260505030431 | 13 | 156 | 4.8 | 9.7 | 0.00 | 0.00 | 0.00 | 73 | 1011.0 |
| 20260505025430 | 13 | 0.0 | 0.0 | 0.00 | 0.00 | 0.00 | 70 | 1010.9 | |
| 20260505024426 | 13 | 0.0 | 0.0 | 0.00 | 0.00 | 0.00 | 70 | 1011.1 | |
| 20260505023427 | 13 | 325 | 3.2 | 3.2 | 0.00 | 0.00 | 0.00 | 71 | 1011.1 |
| 20260505022427 | 13 | 315 | 1.6 | 3.2 | 0.00 | 0.00 | 0.00 | 72 | 1011.0 |
| 20260505021427 | 12 | 267 | 3.2 | 3.2 | 0.00 | 0.00 | 0.00 | 76 | 1011.1 |
| 20260505020446 | 12 | 160 | 1.6 | 1.6 | 0.00 | 0.00 | 0.00 | 74 | 1010.9 |
| 20260505015443 | 12 | 155 | 3.2 | 4.8 | 0.00 | 0.00 | 0.00 | 74 | 1011.1 |
| 20260505014441 | 12 | 170 | 4.8 | 6.4 | 0.00 | 0.00 | 0.00 | 73 | 1011.0 |
| 20260505013436 | 12 | 167 | 4.8 | 4.8 | 0.00 | 0.00 | 0.00 | 75 | 1011.1 |
| 20260505012434 | 12 | 155 | 3.2 | 4.8 | 0.00 | 0.00 | 0.00 | 75 | 1011.1 |
| 20260505011432 | 12 | 157 | 3.2 | 9.7 | 0.00 | 0.00 | 0.00 | 75 | 1011.2 |
| 20260505010430 | 12 | 179 | 8.0 | 9.7 | 0.00 | 0.00 | 0.00 | 74 | 1011.4 |
| 20260505005427 | 12 | 191 | 4.8 | 6.4 | 0.00 | 0.00 | 0.00 | 74 | 1011.4 |
| 20260505004427 | 12 | 191 | 6.4 | 11.3 | 0.00 | 0.00 | 0.00 | 73 | 1011.4 |
| 20260505003445 | 12 | 154 | 6.4 | 6.4 | 0.00 | 0.00 | 0.00 | 72 | 1011.7 |
| 20260505002425 | 13 | 176 | 4.8 | 9.7 | 0.00 | 0.00 | 0.00 | 71 | 1011.7 |
| 20260505001444 | 13 | 177 | 4.8 | 9.7 | 0.00 | 0.00 | 0.00 | 70 | 1012.0 |
| 20260505000502 | 13 | 175 | 4.8 | 6.4 | 0.00 | 0.00 | 0.00 | 70 | 1011.8 |
| 20260504235439 | 13 | 150 | 4.8 | 9.7 | 0.00 | 0.00 | 0.00 | 68 | 1011.9 |
| 20260504234438 | 13 | 178 | 3.2 | 6.4 | 0.00 | 0.00 | 0.00 | 70 | 1011.9 |
| 20260504233433 | 13 | 149 | 6.4 | 9.7 | 0.00 | 0.00 | 0.00 | 68 | 1012.1 |
| 20260504232432 | 14 | 155 | 6.4 | 9.7 | 0.00 | 0.00 | 0.00 | 67 | 1012.2 |
| 20260504231428 | 14 | 155 | 4.8 | 6.4 | 0.00 | 0.00 | 0.00 | 66 | 1012.4 |
| 20260504230428 | 15 | 164 | 3.2 | 6.4 | 0.00 | 0.00 | 0.00 | 66 | 1012.4 |
| 20260504225446 | 15 | 161 | 3.2 | 4.8 | 0.00 | 0.00 | 0.00 | 63 | 1012.5 |
| 20260504224507 | 16 | 143 | 4.8 | 4.8 | 0.00 | 0.00 | 0.00 | 61 | 1012.6 |
| 20260504223425 | 16 | 113 | 8.0 | 11.3 | 0.00 | 0.00 | 0.00 | 62 | 1012.7 |
| 20260504222445 | 16 | 182 | 3.2 | 4.8 | 0.00 | 0.00 | 0.00 | 60 | 1012.7 |
| 20260504221441 | 16 | 201 | 3.2 | 4.8 | 0.00 | 0.00 | 0.00 | 61 | 1012.8 |
| 20260504220458 | 16 | 162 | 6.4 | 11.3 | 0.00 | 0.00 | 0.00 | 63 | 1012.8 |
| 20260504215436 | 16 | 158 | 3.2 | 4.8 | 0.00 | 0.00 | 0.00 | 61 | 1013.0 |
| 20260504214432 | 16 | 150 | 1.6 | 3.2 | 0.00 | 0.00 | 0.00 | 60 | 1013.0 |
| 20260504213429 | 17 | 272 | 1.6 | 1.6 | 0.00 | 0.00 | 0.00 | 59 | 1013.1 |
| 20260504212427 | 17 | 0.0 | 0.0 | 0.00 | 0.00 | 0.00 | 58 | 1013.0 | |
| 20260504211427 | 17 | 290 | 4.8 | 9.7 | 0.00 | 0.00 | 0.00 | 58 | 1012.8 |
| 20260504210426 | 17 | 294 | 11.3 | 16.1 | 0.00 | 0.00 | 0.00 | 57 | 1012.8 |
| 20260504205426 | 17 | 277 | 9.7 | 14.5 | 0.00 | 0.00 | 0.00 | 57 | 1013.0 |
| 20260504204444 | 18 | 296 | 11.3 | 14.5 | 0.00 | 0.00 | 0.00 | 57 | 1012.6 |
| 20260504203502 | 18 | 282 | 11.3 | 16.1 | 0.00 | 0.00 | 0.00 | 57 | 1012.6 |
| 20260504202439 | 19 | 281 | 12.9 | 20.9 | 0.00 | 0.00 | 0.00 | 55 | 1012.4 |
| 20260504201437 | 19 | 295 | 8.0 | 11.3 | 0.00 | 0.00 | 0.00 | 55 | 1012.2 |
| 20260504200433 | 19 | 289 | 6.4 | 12.9 | 0.00 | 0.00 | 0.00 | 55 | 1012.0 |
| 20260504195431 | 18 | 0.0 | 0.0 | 0.00 | 0.00 | 0.00 | 56 | 1011.9 | |
| 20260504194528 | 18 | 0.0 | 0.0 | 0.00 | 0.00 | 0.00 | 56 | 1011.7 | |
| 20260504193426 | 18 | 144 | 1.6 | 1.6 | 0.00 | 0.00 | 0.00 | 55 | 1011.7 |
| 20260504192426 | 18 | 144 | 1.6 | 3.2 | 0.00 | 0.00 | 0.00 | 53 | 1011.5 |
| 20260504191427 | 20 | 126 | 3.2 | 4.8 | 0.00 | 0.00 | 0.00 | 52 | 1011.5 |
| 20260504190426 | 20 | 106 | 4.8 | 6.4 | 0.00 | 0.00 | 0.00 | 52 | 1011.6 |
| 20260504185443 | 21 | 120 | 6.4 | 9.7 | 0.00 | 0.00 | 0.00 | 49 | 1011.5 |
| 20260504184440 | 21 | 102 | 11.3 | 14.5 | 0.00 | 0.00 | 0.00 | 49 | 1011.5 |
| 20260504183439 | 21 | 109 | 11.3 | 16.1 | 0.00 | 0.00 | 0.00 | 49 | 1011.3 |
| 20260504182435 | 21 | 110 | 11.3 | 14.5 | 0.00 | 0.00 | 0.00 | 49 | 1011.5 |
| 20260504181432 | 21 | 98 | 9.7 | 14.5 | 0.00 | 0.00 | 0.00 | 50 | 1011.3 |
| 20260504180431 | 21 | 93 | 9.7 | 11.3 | 0.00 | 0.00 | 0.00 | 50 | 1011.4 |
| 20260504175427 | 21 | 104 | 8.0 | 11.3 | 0.00 | 0.00 | 0.00 | 48 | 1011.6 |
| 20260504174426 | 22 | 96 | 8.0 | 11.3 | 0.00 | 0.00 | 0.00 | 48 | 1011.5 |
| 20260504173427 | 22 | 91 | 6.4 | 9.7 | 0.00 | 0.00 | 0.00 | 47 | 1011.6 |
| 20260504172426 | 22 | 87 | 8.0 | 12.9 | 0.00 | 0.00 | 0.00 | 48 | 1011.5 |
| 20260504171506 | 22 | 87 | 11.3 | 14.5 | 0.00 | 0.00 | 0.00 | 46 | 1011.6 |
| 20260504170442 | 22 | 87 | 8.0 | 9.7 | 0.00 | 0.00 | 0.00 | 47 | 1011.7 |
| 20260504160446 | 23 | 86 | 11.3 | 16.1 | 0.00 | 0.00 | 0.00 | 41 | 1012.0 |
| 20260504150438 | 24 | 91 | 12.9 | 17.7 | 0.00 | 0.00 | 0.00 | 40 | 1012.2 |